Location: Haliburton Scout Reserve
(45.0900°N, 78.3200°W)
Time: 11:28:25
(UTC-04:00)

Oscar 11 - Pass Details

Date: 22 May 2022
Orbit: 613 x 622 km, 97.6° (Epoch: 27 June)

Event Time Altitude Azimuth Distance (km) Brightness Sun altitude
Rises 04:57:19 0° 34° (NE) 2,896 12.2 -6.6°
Reaches altitude 10° 05:00:57 10° 66° (ENE) 1,985 11.3 -6.1°
Maximum altitude 05:02:35 12° 88° (E) 1,859 10.4 -5.9°
Drops below altitude 10° 05:04:12 10° 111° (ESE) 1,981 10.1 -5.6°
Sets 05:07:48 0° 143° (SE) 2,882 10.5 -5.1°
